GW4602 Weather Reports


time (UTC)temp
C
wind
direction
speed
KPH
gust
KPH
rain 1hr
cm
rain 24hr
cm
rain mn
cm
humidity
%
barometer
mb
20260510180311 25 220 8.0 16.1 0.00 0.00 0.00 46 1018.1
20260510175807 25 332 4.8 11.3 0.00 0.00 0.00 43 1018.3
20260510175306 25 275 9.7 16.1 0.00 0.00 0.00 47 1018.3
20260510174800 25 275 3.2 9.7 0.00 0.00 0.00 49 1018.3
20260510174257 25 330 4.8 16.1 0.00 0.00 0.00 44 1018.2
20260510173753 25 293 4.8 9.7 0.00 0.00 0.00 42 1018.3
20260510173249 25 304 1.6 9.7 0.00 0.00 0.00 44 1018.3
20260510172745 25 264 1.6 6.4 0.00 0.00 0.00 50 1018.6
20260510172241 25 321 4.8 6.4 0.00 0.00 0.00 46 1018.7
20260510171738 25 275 4.8 9.7 0.00 0.00 0.00 46 1018.6
20260510171235 25 311 1.6 3.2 0.00 0.00 0.00 56 1018.5
20260510170732 24 256 4.8 6.4 0.00 0.00 0.00 47 1018.6
20260510170228 25 228 6.4 12.9 0.00 0.00 0.00 50 1018.7
20260510165724 25 225 1.6 4.8 0.00 0.00 0.00 51 1018.6
20260510165220 25 227 9.7 12.9 0.00 0.00 0.00 50 1018.7
20260510164718 24 295 3.2 16.1 0.00 0.00 0.00 51 1018.6
20260510164215 24 75 0.0 3.2 0.00 0.00 0.00 54 1018.6
20260510163710 23 348 1.6 12.9 0.00 0.00 0.00 56 1018.7
20260510163206 23 267 3.2 6.4 0.00 0.00 0.00 52 1018.7
20260510162706 23 312 0.0 12.9 0.00 0.00 0.00 51 1018.8
20260510162203 25 238 6.4 11.3 0.00 0.00 0.00 48 1018.7
20260510161658 25 305 1.6 3.2 0.00 0.00 0.00 47 1018.7
20260510161155 24 278 6.4 9.7 0.00 0.00 0.00 50 1018.6
20260510160652 23 282 1.6 3.2 0.00 0.00 0.00 51 1018.8
20260510160147 23 259 3.2 4.8 0.00 0.00 0.00 53 1018.8
20260510155644 23 316 4.8 9.7 0.00 0.00 0.00 51 1018.6
20260510155139 23 198 8.0 9.7 0.00 0.00 0.00 51 1018.8
20260510154635 23 329 9.7 11.3 0.00 0.00 0.00 51 1018.8
20260510154131 23 238 3.2 6.4 0.00 0.00 0.00 55 1018.9
20260510153626 23 307 1.6 4.8 0.00 0.00 0.00 50 1018.9
20260510153123 23 235 3.2 4.8 0.00 0.00 0.00 60 1018.8
20260510152620 23 258 4.8 9.7 0.00 0.00 0.00 60 1019.0
20260510152116 23 37 1.6 4.8 0.00 0.00 0.00 57 1018.9
20260510151613 22 249 0.0 6.4 0.00 0.00 0.00 56 1019.1
20260510151112 22 12 1.6 3.2 0.00 0.00 0.00 56 1019.4
20260510150611 22 229 1.6 3.2 0.00 0.00 0.00 60 1019.1
20260510150108 22 246 3.2 4.8 0.00 0.00 0.00 63 1019.1
20260510145604 21 151 0.0 1.6 0.00 0.00 0.00 69 1019.3
20260510145101 20 47 1.6 3.2 0.00 0.00 0.00 66 1019.2
20260510144557 20 34 3.2 3.2 0.00 0.00 0.00 65 1019.1
20260510144053 20 322 1.6 3.2 0.00 0.00 0.00 73 1019.1
20260510143548 20 349 0.0 1.6 0.00 0.00 0.00 71 1019.0
20260510143045 19 264 0.0 1.6 0.00 0.00 0.00 73 1019.1
20260510142542 18 109 0.0 1.6 0.00 0.00 0.00 72 1019.1
20260510142039 17 281 0.0 1.6 0.00 0.00 0.00 74 1019.3
20260510141535 17 129 0.0 1.6 0.00 0.00 0.00 75 1019.4
20260510141033 17 28 0.0 3.2 0.00 0.00 0.00 79 1019.1
20260510140529 16 101 1.6 3.2 0.00 0.00 0.00 79 1019.2
20260510140029 16 17 0.0 1.6 0.00 0.00 0.00 82 1019.4
20260510135525 15 31 0.0 1.6 0.00 0.00 0.00 84 1019.4
20260510135021 15 80 0.0 1.6 0.00 0.00 0.00 85 1019.4
20260510134518 13 175 0.0 0.0 0.00 0.00 0.00 90 1019.6
20260510134015 13 314 1.6 3.2 0.00 0.00 0.00 91 1019.6
20260510133511 13 103 0.0 3.2 0.00 0.00 0.00 94 1019.5
20260510133007 12 349 0.0 0.0 0.00 0.00 0.00 99 1019.5
20260510132504 11 248 0.0 1.6 0.00 0.00 0.00 97 1019.5
20260510132001 11 241 1.6 3.2 0.00 0.00 0.00 99 1019.8
20260510131459 11 285 0.0 3.2 0.00 0.00 0.00 99 1019.9
20260510130956 10 335 1.6 3.2 0.00 0.00 0.00 99 1019.7
20260510130452 10 319 0.0 0.0 0.00 0.00 0.00 99 1019.5
20260510125949 10 119 0.0 0.0 0.00 0.00 0.00 99 1019.7
20260510125445 9 108 0.0 0.0 0.00 0.00 0.00 99 1019.8
20260510124942 8 113 0.0 0.0 0.00 0.00 0.00 99 1019.9
20260510124438 8 116 0.0 0.0 0.00 0.00 0.00 99 1019.9
20260510123935 8 67 0.0 0.0 0.00 0.00 0.00 99 1019.7
20260510123431 8 50 0.0 0.0 0.00 0.00 0.00 99 1019.7
20260510122927 8 346 0.0 0.0 0.00 0.00 0.00 99 1019.7
20260510122427 8 328 0.0 0.0 0.00 0.00 0.00 99 1019.6
20260510121924 7 243 0.0 0.0 0.00 0.00 0.00 99 1019.5
20260510121422 7 122 0.0 0.0 0.00 0.00 0.00 99 1019.5
20260510120919 7 122 0.0 0.0 0.00 0.00 0.00 99 1019.2
20260510120416 7 121 0.0 0.0 0.00 0.00 0.00 99 1019.3
20260510115912 7 130 0.0 0.0 0.00 0.00 0.00 99 1019.3
20260510115409 7 130 0.0 0.0 0.00 0.00 0.00 99 1019.3
20260510114904 7 130 0.0 0.0 0.00 0.00 0.00 99 1019.4
20260510114402 7 131 0.0 0.0 0.00 0.00 0.00 99 1019.4
20260510113857 6 131 0.0 0.0 0.00 0.00 0.00 99 1019.5
20260510113353 6 127 0.0 0.0 0.00 0.00 0.00 99 1019.4
20260510112850 6 154 0.0 0.0 0.00 0.00 0.00 99 1019.3
20260510112347 6 114 0.0 0.0 0.00 0.00 0.00 99 1019.3
20260510111843 6 111 0.0 0.0 0.00 0.00 0.00 99 1019.3
20260510111340 6 123 0.0 0.0 0.00 0.00 0.00 99 1019.0
20260510110839 5 110 0.0 0.0 0.00 0.00 0.00 99 1018.9
20260510110337 5 131 0.0 0.0 0.00 0.00 0.00 99 1018.9
20260510105833 5 119 0.0 0.0 0.00 0.00 0.00 99 1018.8
20260510105333 5 121 0.0 0.0 0.00 0.00 0.00 99 1018.9
20260510104829 5 114 0.0 0.0 0.00 0.00 0.00 99 1018.8
20260510104327 5 114 0.0 0.0 0.00 0.00 0.00 99 1018.6
20260510103823 5 114 0.0 0.0 0.00 0.00 0.00 99 1018.7
20260510103320 5 115 0.0 0.0 0.00 0.00 0.00 99 1018.5
20260510102815 5 128 0.0 0.0 0.00 0.00 0.00 99 1018.4
20260510102311 6 122 0.0 0.0 0.00 0.00 0.00 99 1018.4
20260510101808 6 115 0.0 0.0 0.00 0.00 0.00 99 1018.3
20260510101307 6 135 0.0 0.0 0.00 0.00 0.00 99 1018.4
20260510100802 6 118 0.0 0.0 0.00 0.00 0.00 99 1018.2
20260510100300 6 123 0.0 0.0 0.00 0.00 0.00 99 1018.3
20260510095755 6 113 0.0 0.0 0.00 0.00 0.00 99 1018.4
20260510095251 6 128 0.0 0.0 0.00 0.00 0.00 99 1018.1
20260510094750 6 121 0.0 0.0 0.00 0.00 0.00 99 1018.2
20260510094245 6 115 0.0 0.0 0.00 0.00 0.00 99 1018.2
20260510093742 6 118 0.0 0.0 0.00 0.00 0.00 99 1018.0
20260510093239 6 127 0.0 0.0 0.00 0.00 0.00 99 1018.1
20260510092735 6 124 0.0 0.0 0.00 0.00 0.00 99 1018.1
20260510092231 6 125 0.0 0.0 0.00 0.00 0.00 99 1018.0
20260510091727 6 125 0.0 0.0 0.00 0.00 0.00 99 1017.7
20260510091224 6 124 0.0 0.0 0.00 0.00 0.00 99 1018.0
20260510090720 6 120 0.0 0.0 0.00 0.00 0.00 99 1017.6
20260510090217 6 126 0.0 0.0 0.00 0.00 0.00 99 1017.6
20260510085712 6 119 0.0 0.0 0.00 0.00 0.00 99 1017.6
20260510085208 5 136 0.0 0.0 0.00 0.00 0.00 99 1017.6
20260510084704 5 136 0.0 0.0 0.00 0.00 0.00 99 1017.6
20260510084200 5 136 0.0 0.0 0.00 0.00 0.00 99 1017.6
20260510083658 5 144 0.0 0.0 0.00 0.00 0.00 99 1017.4
20260510083155 5 144 0.0 0.0 0.00 0.00 0.00 99 1017.6
20260510082650 5 144 0.0 0.0 0.00 0.00 0.00 99 1017.1
20260510082146 5 143 0.0 0.0 0.00 0.00 0.00 99 1017.1
20260510081641 5 137 0.0 0.0 0.00 0.00 0.00 99 1016.9
20260510081137 5 137 0.0 0.0 0.00 0.00 0.00 99 1016.9
20260510080636 5 139 0.0 0.0 0.00 0.00 0.00 99 1017.2
20260510080133 5 139 0.0 0.0 0.00 0.00 0.00 99 1017.1
20260510075631 5 139 0.0 0.0 0.00 0.00 0.00 99 1016.9
20260510075128 5 139 0.0 0.0 0.00 0.00 0.00 99 1017.1
20260510074625 5 139 0.0 0.0 0.00 0.00 0.00 99 1017.0
20260510074120 5 226 0.0 0.0 0.00 0.00 0.00 99 1017.1
20260510073616 5 229 0.0 0.0 0.00 0.00 0.00 99 1017.0
20260510073114 5 151 0.0 0.0 0.00 0.00 0.00 99 1017.0
20260510072611 5 144 0.0 0.0 0.00 0.00 0.00 99 1016.8
20260510072107 5 157 0.0 0.0 0.00 0.00 0.00 99 1017.0
20260510071602 5 153 0.0 0.0 0.00 0.00 0.00 99 1017.0
20260510071100 5 161 0.0 0.0 0.00 0.00 0.00 99 1017.0
20260510070557 5 282 0.0 0.0 0.00 0.00 0.00 99 1017.0
20260510070054 5 281 0.0 0.0 0.00 0.00 0.00 99 1017.0
20260510065550 5 280 0.0 0.0 0.00 0.00 0.00 99 1016.9
20260510065046 5 143 0.0 0.0 0.00 0.00 0.00 99 1016.8
20260510064543 5 194 0.0 0.0 0.00 0.00 0.00 99 1016.8
20260510064040 5 259 0.0 0.0 0.00 0.00 0.00 99 1016.9
20260510063537 5 133 0.0 0.0 0.00 0.00 0.00 99 1016.8
20260510063034 5 211 0.0 0.0 0.00 0.00 0.00 99 1016.9
20260510062530 5 242 0.0 0.0 0.00 0.00 0.00 99 1016.9
20260510062025 5 318 0.0 0.0 0.00 0.00 0.00 99 1016.8
20260510061522 5 318 0.0 0.0 0.00 0.00 0.00 99 1016.7
20260510061018 6 319 0.0 0.0 0.00 0.00 0.00 99 1016.6
20260510060515 6 242 0.0 0.0 0.00 0.00 0.00 99 1016.6
20260510060011 5 278 0.0 0.0 0.00 0.00 0.00 99 1016.8
20260510055507 5 276 0.0 0.0 0.00 0.00 0.00 99 1016.7
20260510055005 6 278 0.0 0.0 0.00 0.00 0.00 99 1016.7
20260510054501 6 215 0.0 0.0 0.00 0.00 0.00 99 1016.7
20260510053956 6 235 0.0 0.0 0.00 0.00 0.00 99 1016.9
20260510053451 6 293 0.0 0.0 0.00 0.00 0.00 98 1016.9
20260510052947 5 273 0.0 0.0 0.00 0.00 0.00 99 1016.9
20260510052443 6 271 0.0 0.0 0.00 0.00 0.00 98 1016.8
20260510051940 6 271 0.0 0.0 0.00 0.00 0.00 99 1016.9
20260510051436 6 257 0.0 0.0 0.00 0.00 0.00 99 1016.7
20260510050932 6 243 0.0 0.0 0.00 0.00 0.00 99 1016.7
20260510050429 6 244 0.0 0.0 0.00 0.00 0.00 99 1016.8
20260510045927 6 329 0.0 0.0 0.00 0.00 0.00 98 1016.9
20260510045424 6 317 0.0 0.0 0.00 0.00 0.00 98 1016.7
20260510044920 6 304 0.0 0.0 0.00 0.00 0.00 98 1016.7
20260510044417 7 291 0.0 0.0 0.00 0.00 0.00 98 1016.7
20260510043914 7 284 0.0 0.0 0.00 0.00 0.00 98 1016.7
20260510043410 7 251 0.0 0.0 0.00 0.00 0.00 98 1016.8
20260510042908 6 268 0.0 0.0 0.00 0.00 0.00 98 1016.8
20260510042404 6 267 0.0 0.0 0.00 0.00 0.00 98 1016.7
20260510041900 7 260 0.0 0.0 0.00 0.00 0.00 98 1016.6
20260510041357 7 249 0.0 0.0 0.00 0.00 0.00 98 1016.7
20260510040855 7 295 0.0 0.0 0.00 0.00 0.00 97 1016.7
20260510040352 7 297 0.0 0.0 0.00 0.00 0.00 97 1016.6
20260510035847 7 297 0.0 0.0 0.00 0.00 0.00 97 1016.6
20260510035343 7 299 0.0 0.0 0.00 0.00 0.00 97 1016.5
20260510034839 7 299 0.0 0.0 0.00 0.00 0.00 97 1016.5
20260510034337 7 293 0.0 0.0 0.00 0.00 0.00 96 1016.5
20260510033833 7 277 0.0 0.0 0.00 0.00 0.00 96 1016.5
20260510033330 7 273 0.0 0.0 0.00 0.00 0.00 96 1016.2
20260510032826 8 269 0.0 0.0 0.00 0.00 0.00 96 1016.4
20260510032323 8 268 0.0 0.0 0.00 0.00 0.00 96 1016.3
20260510031819 8 261 0.0 0.0 0.00 0.00 0.00 96 1016.3
20260510031315 8 276 0.0 0.0 0.00 0.00 0.00 95 1016.4
20260510030815 8 275 0.0 0.0 0.00 0.00 0.00 95 1016.5
20260510030311 8 247 0.0 0.0 0.00 0.00 0.00 95 1016.3
20260510025809 8 290 0.0 0.0 0.00 0.00 0.00 94 1016.3
20260510025306 8 286 0.0 0.0 0.00 0.00 0.00 95 1016.4
20260510024803 8 248 0.0 0.0 0.00 0.00 0.00 94 1016.4
20260510024300 8 288 0.0 0.0 0.00 0.00 0.00 92 1016.3
20260510023756 8 286 0.0 0.0 0.00 0.00 0.00 92 1016.0
20260510023253 9 286 0.0 0.0 0.00 0.00 0.00 92 1016.1
20260510022749 9 264 0.0 0.0 0.00 0.00 0.00 92 1016.0
20260510022249 9 259 0.0 0.0 0.00 0.00 0.00 92 1016.0
20260510021748 9 260 0.0 0.0 0.00 0.00 0.00 91 1016.0
20260510021247 10 253 0.0 0.0 0.00 0.00 0.00 91 1015.8
20260510020742 10 248 0.0 0.0 0.00 0.00 0.00 90 1015.8
20260510020242 10 2 0.0 0.0 0.00 0.00 0.00 88 1015.8
20260510015739 10 4 0.0 0.0 0.00 0.00 0.00 89 1015.8
20260510015235 10 358 0.0 0.0 0.00 0.00 0.00 88 1015.7
20260510014730 10 352 0.0 0.0 0.00 0.00 0.00 87 1015.2
20260510014228 11 265 0.0 0.0 0.00 0.00 0.00 87 1015.3
20260510013723 11 255 0.0 0.0 0.00 0.00 0.00 87 1015.0
20260510013219 11 231 0.0 0.0 0.00 0.00 0.00 86 1014.9
20260510012719 11 243 0.0 0.0 0.00 0.00 0.00 85 1014.8
20260510012214 11 248 0.0 0.0 0.00 0.00 0.00 86 1015.0
20260510011709 11 278 0.0 0.0 0.00 0.00 0.00 83 1014.7
20260510011205 12 260 0.0 0.0 0.00 0.00 0.00 82 1014.5
20260510010701 12 245 0.0 0.0 0.00 0.00 0.00 80 1014.6
20260510010158 12 221 0.0 0.0 0.00 0.00 0.00 80 1014.6
20260510005655 13 340 0.0 0.0 0.00 0.00 0.00 79 1014.3
20260510005151 13 301 0.0 0.0 0.00 0.00 0.00 77 1014.3
20260510004650 13 163 0.0 0.0 0.00 0.00 0.00 75 1014.5
20260510004148 14 187 0.0 0.0 0.00 0.00 0.00 75 1014.4
20260510003645 14 227 0.0 0.0 0.00 0.00 0.00 73 1014.3
20260510003140 15 120 0.0 0.0 0.00 0.00 0.00 71 1014.4
20260510002635 15 120 0.0 0.0 0.00 0.00 0.00 69 1014.3
20260510002132 16 133 0.0 0.0 0.00 0.00 0.00 67 1014.2
20260510001629 16 251 0.0 0.0 0.00 0.00 0.00 65 1013.9
20260510001128 16 237 0.0 0.0 0.00 0.00 0.00 64 1014.0
20260510000627 17 284 0.0 0.0 0.00 0.00 0.00 60 1013.9
20260510000125 17 305 0.0 0.0 0.00 0.00 0.00 59 1013.7
20260509235621 17 257 0.0 0.0 0.00 0.00 0.00 58 1013.8
20260509235118 18 305 0.0 0.0 0.00 0.00 0.00 55 1013.7
20260509234614 18 305 1.6 3.2 0.00 0.00 0.00 54 1013.5
20260509234112 18 268 0.0 1.6 0.00 0.00 0.00 55 1013.5
20260509233610 18 348 0.0 1.6 0.00 0.00 0.00 54 1013.3
20260509233107 19 282 0.0 3.2 0.00 0.00 0.00 52 1013.5
20260509232603 19 296 0.0 4.8 0.00 0.00 0.00 54 1013.3
20260509232100 19 242 1.6 3.2 0.00 0.00 0.00 53 1013.3
20260509231556 19 193 3.2 3.2 0.00 0.00 0.00 53 1013.3
20260509231054 19 267 6.4 9.7 0.00 0.00 0.00 54 1013.2
20260509230550 19 248 1.6 3.2 0.00 0.00 0.00 53 1013.3
20260509230048 19 250 3.2 4.8 0.00 0.00 0.00 52 1013.3
20260509225543 20 269 1.6 4.8 0.00 0.00 0.00 51 1013.2
20260509225039 20 243 6.4 6.4 0.00 0.00 0.00 52 1013.3
20260509224535 20 291 3.2 4.8 0.00 0.00 0.00 50 1013.5
20260509224032 20 288 3.2 3.2 0.00 0.00 0.00 48 1013.3
20260509223529 20 306 1.6 6.4 0.00 0.00 0.00 52 1013.5
20260509223027 20 300 3.2 4.8 0.00 0.00 0.00 49 1013.5
20260509222522 20 307 1.6 9.7 0.00 0.00 0.00 50 1013.7
20260509222018 20 235 3.2 3.2 0.00 0.00 0.00 51 1013.7
20260509221514 20 309 3.2 4.8 0.00 0.00 0.00 51 1013.6
20260509221010 20 287 3.2 4.8 0.00 0.00 0.00 48 1013.7
20260509220506 20 276 4.8 14.5 0.00 0.00 0.00 49 1013.6
20260509220003 20 277 4.8 9.7 0.00 0.00 0.00 48 1013.7
20260509215458 20 266 1.6 3.2 0.00 0.00 0.00 49 1013.5
20260509214956 20 246 0.0 1.6 0.00 0.00 0.00 52 1013.5
20260509214453 20 298 3.2 9.7 0.00 0.00 0.00 48 1013.5
20260509213949 20 266 3.2 4.8 0.00 0.00 0.00 50 1013.6
20260509213445 20 250 0.0 4.8 0.00 0.00 0.00 51 1013.5
20260509212943 21 281 0.0 1.6 0.00 0.00 0.00 50 1013.3
20260509212440 20 297 1.6 3.2 0.00 0.00 0.00 46 1013.3
20260509211936 20 274 1.6 4.8 0.00 0.00 0.00 47 1013.3
20260509211432 20 260 3.2 4.8 0.00 0.00 0.00 48 1013.2
20260509210928 21 295 4.8 9.7 0.00 0.00 0.00 46 1013.1
20260509210426 20 54 3.2 4.8 0.00 0.00 0.00 53 1013.2
20260509205921 20 291 1.6 1.6 0.00 0.00 0.00 49 1013.0
20260509205420 20 278 1.6 4.8 0.00 0.00 0.00 48 1013.1
20260509204917 20 281 3.2 6.4 0.00 0.00 0.00 46 1012.9
20260509204413 20 287 6.4 9.7 0.00 0.00 0.00 45 1013.0
20260509203910 21 275 3.2 6.4 0.00 0.00 0.00 48 1012.8
20260509203406 21 283 3.2 6.4 0.00 0.00 0.00 45 1012.8
20260509202904 21 234 1.6 3.2 0.00 0.00 0.00 49 1013.0
20260509202359 21 297 3.2 6.4 0.00 0.00 0.00 47 1012.7
20260509201854 21 333 3.2 6.4 0.00 0.00 0.00 48 1012.8
20260509201350 21 47 6.4 9.7 0.00 0.00 0.00 46 1012.7
20260509200847 21 298 3.2 4.8 0.00 0.00 0.00 47 1012.5
20260509200342 21 275 4.8 6.4 0.00 0.00 0.00 46 1012.6
20260509195839 21 247 3.2 11.3 0.00 0.00 0.00 47 1012.6
20260509195339 21 237 12.9 14.5 0.00 0.00 0.00 46 1012.5
20260509194839 20 246 3.2 3.2 0.00 0.00 0.00 50 1012.6
20260509194335 20 224 9.7 16.1 0.00 0.00 0.00 47 1012.5
20260509193833 21 206 3.2 6.4 0.00 0.00 0.00 49 1012.6
20260509193332 21 206 3.2 6.4 0.00 0.00 0.00 49 1012.6
20260509192829 21 282 1.6 6.4 0.00 0.00 0.00 45 1012.5
20260509192325 21 259 0.0 6.4 0.00 0.00 0.00 46 1012.5
20260509191820 22 292 4.8 9.7 0.00 0.00 0.00 40 1012.5
20260509191316 22 287 1.6 9.7 0.00 0.00 0.00 51 1012.5
20260509190812 21 279 4.8 11.3 0.00 0.00 0.00 45 1012.3
20260509190310 21 253 9.7 11.3 0.00 0.00 0.00 45 1012.3
20260509185807 21 315 6.4 12.9 0.00 0.00 0.00 44 1012.2
20260509185306 21 215 0.0 1.6 0.00 0.00 0.00 51 1012.6
20260509184800 21 232 4.8 17.7 0.00 0.00 0.00 45 1012.6
20260509184258 21 296 0.0 3.2 0.00 0.00 0.00 52 1012.8
20260509183754 21 286 0.0 3.2 0.00 0.00 0.00 52 1012.6
20260509183249 21 237 3.2 6.4 0.00 0.00 0.00 51 1012.7
20260509182745 22 257 3.2 3.2 0.00 0.00 0.00 45 1012.6
20260509182243 22 305 3.2 6.4 0.00 0.00 0.00 47 1012.6
20260509181740 22 309 3.2 9.7 0.00 0.00 0.00 45 1012.5
20260509181237 21 296 1.6 6.4 0.00 0.00 0.00 45 1012.5
20260509180734 21 333 3.2 4.8 0.00 0.00 0.00 44 1012.6